www.pogodaiklimat.ru

Погода и климат >> Архив погоды >> Мексика >> Hermosillo la Magna


ПОГОДА в Hermosillo la Magna

  • Прогноз погоды в Hermosillo la Magna
  • Монитор погоды в Hermosillo la Magna
  • Климат города

АРХИВ ПОГОДЫ в Hermosillo la Magna

Время (UTC), дата Ветер
(напр.,м/с)
 
Видим.   Явления Облачность Т
(С)
Тd
(С)
f
(%)
Тe
(С)
Тes
(С)
Комфортность P
(гПа)
Po
(гПа)
Тmin
(С)
Tmax
(С)
R
(мм)
R24
(мм)
S
(см)
18 11.10 Ю 3 н/о н/о +26.1 +19.4 67 +32 +32 очень
душно
1011.5 987.5 +21.6 +26.3
21 11.10 штиль 0 н/о н/о +23.1 +23.1 100 +32 +32 очень
душно
1011.0 986.8 3
00 12.10 СВ 4 н/о н/о +21.5 +21.5 100 1010.2 986.7 +21.5 +26.3 2
03 12.10 СВ 4 н/о н/о +20.4 +20.4 100 +25 +25 комфорт 1011.2 986.8 2
06 12.10 СВ 4 н/о н/о +20.4 +20.3 99 +25 +25 комфорт 1010.8 986.4 +20.3 +26.3 1
09 12.10 В 4 н/о н/о +19.5 +19.5 100 +22 +22 комфорт 1009.6 985.1 6
12 12.10 СВ 6 н/о н/о +19.9 +19.2 96 +23 +23 комфорт 1007.0 982.6 +19.1 +26.3 11
15 12.10 СВ 7 н/о н/о +20.3 +20.3 100 +24 +24 комфорт 1005.1 980.8 2
18 12.10 В 8 н/о н/о +19.4 +19.4 100 +21 +21 комфорт 1001.5 977.2 +19.1 +20.5 14
21 12.10 СВ 6 н/о н/о +19.8 +19.8 100 +23 +23 комфорт 999.4 975.2 35
00 13.10 З 2 н/о н/о +20.9 +20.4 97 1007.0 979.8 +19.1 +21.5 0.2
03 13.10 В 1 н/о н/о +19.9 +19.9 100 +24 +24 комфорт 1009.6 985.2
06 13.10 СВ 2 н/о н/о +19.9 +19.9 100 +24 +24 комфорт 1010.2 985.8 +19.1 +21.5
09 13.10 СВ 2 н/о н/о +20.1 +20.1 100 +24 +24 комфорт 1010.2 985.8 0.2
12 13.10 СВ 1 н/о н/о +20.4 +19.6 95 +26 +26 душно 1009.9 985.4 +19.4 +21.5 0.8
15 13.10 Ю 1 н/о н/о +21.4 +20.5 95 +27 +27 душно 1011.6 987.3
18 13.10 ЮЗ 1 н/о н/о +23.6 +18.6 74 +28 +28 душно 1012.2 988.0 +19.1 +23.6
21 13.10 З 3 н/о н/о +25.9 +17.5 60 +30 +30 душно 1009.8 985.9
00 14.10 ЮЗ 3 н/о н/о +24.3 +17.6 66 1009.2 985.4 +19.4 +27.0
03 14.10 З 2 н/о н/о +22.1 +18.0 78 +27 +27 душно 1010.0 985.7
06 14.10 штиль 0 н/о н/о +20.7 +17.9 84 +24 +24 комфорт 1010.2 985.8 +19.4 +27.0
09 14.10 СВ 1 н/о н/о +17.9 +17.9 100 +19 +19 1010.5 985.9
12 14.10 СВ 1 н/о н/о +18.8 -2 -2 1010.3 985.8 +17.7 +27.0
15 14.10 В 1 н/о н/о +20.4 +18.1 87 +25 +25 комфорт 1011.8 987.4
18 14.10 В 2 н/о н/о +26.0 +14.3 48 +28 +28 жарко 1012.4 988.4 +17.7 +26.7
21 14.10 З 1 н/о н/о +27.5 +13.6 42 +29 +29 жарко 1010.4 986.6
00 15.10 З 2 н/о н/о +27.2 +13.1 42 1009.9 986.4 +17.7 +28.7
03 15.10 З 2 н/о н/о +22.0 +15.2 65 +26 +26 душно 1011.2 986.9
06 15.10 СВ 1 н/о н/о +19.1 +16.9 87 +22 +22 комфорт 1011.6 987.1 +17.7 +28.7
09 15.10 В 1 н/о н/о +18.8 +17.7 93 +21 +21 комфорт 1011.7 987.1
12 15.10 СВ 1 н/о н/о +18.2 +15.5 84 +20 +20 1011.6 986.9 +17.4 +28.7
15 15.10 СВ 2 н/о н/о +19.7 +15.6 77 +22 +22 комфорт 1012.7 988.2
18 15.10 З 2 н/о н/о +25.7 +15.4 53 +29 +29 душно 1012.2 988.2 +16.8 +25.7
21 15.10 З 2 н/о н/о +29.7 +13.5 37 +31 +31 жарко 1009.8 986.2
00 16.10 З 2 н/о н/о +28.5 +13.0 38 1009.2 985.6 +16.8 +30.0
03 16.10 З 2 н/о н/о +23.6 +14.9 58 +26 +26 жарко 1010.2 986.1
06 16.10 С 1 н/о н/о +20.4 +13.0 62 +24 +24 комфорт 1011.6 987.2 +16.8 +30.0
09 16.10 СЗ 1 н/о н/о +19.0 +13.0 68 +21 +21 комфорт 1011.2 986.7
12 16.10 СЗ 1 н/о н/о +18.0 +12.5 70 +19 +19 1012.1 987.3 +16.1 +30.0
15 16.10 З 1 н/о н/о +20.0 +10.5 54 +23 +23 комфорт 1013.3 988.8
18 16.10 Ю 1 н/о н/о +27.3 +11.6 38 +28 +28 жарко 1012.9 989.0 +15.3 +27.3
21 16.10 ЮЗ 3 н/о н/о +29.2 +7.6 26 +28 +28 жарко 1010.7 987.0
00 17.10 З 2 н/о н/о +28.5 +3.7 20 1010.7 987.2 +15.3 +30.1
03 17.10 З 3 н/о н/о +22.3 +7.3 38 +23 +23 комфорт 1012.6 988.3
06 17.10 СЗ 1 н/о н/о +19.2 +9.2 52 +21 +21 комфорт 1013.4 988.8 +15.3 +30.1
09 17.10 СВ 2 н/о н/о +16.1 +11.8 76 +16 +16 1013.3 988.5
12 17.10 В 1 н/о н/о +16.7 +11.1 70 +18 +18 1012.8 988.0 +15.3 +30.1
15 17.10 В 3 н/о н/о +20.3 +10.6 54 +22 +22 комфорт 1013.9 989.4
18 17.10 СВ 3 н/о н/о +26.0 +11.1 39 +27 +27 жарко 1013.4 989.4 +15.3 +26.2
21 17.10 Ю 2 н/о н/о +30.9 +10.9 29 +31 +31 жарко 1010.7 987.1
00 18.10 ЮЗ 3 н/о н/о +29.4 +9.9 30 1010.1 986.9 +15.3 +32.6
03 18.10 З 3 н/о н/о +23.6 +9.9 42 +25 +25 комфорт 1011.9 987.7
06 18.10 З 2 н/о н/о +19.9 +11.2 57 +22 +22 комфорт 1013.1 988.6 +15.3 +32.6
09 18.10 СВ 1 н/о н/о +17.2 +12.7 75 +18 +18 1012.9 988.2
12 18.10 В 1 н/о н/о +12.9 -2 -2 1013.1 988.3 +16.3 +32.6

 

Местоположение метеостанции Hermosillo la Magna (Мексика): широта 29.08 долгота -110.95 высота над уровнем моря 210 м.

В архиве по умолчанию представлена погода в Hermosillo la Magna за последнюю неделю. Архивные данные за месяц целиком и за предыдущие месяцы, начиная с января 2011 года, Вы можете получить, выбрав интересующий диапазон дат из раскрывающегося списка и нажав кнопку "Ввод!".


*Определитесь, кто Вы:
робот инопланетянин человек

Внимание! Время в таблицах - всемирное. Для получения местного времени необходимо прибавить поправку, которая в Hermosillo la Magna равна -7 ч.

Смотрите также архив погоды в соседних городах и на ближайших метеорологических станциях:

Погода в Hermosillo (Мексика) (10 км)
Погода в Empalme (Мексика) (128 км)
Погода в Guaymas (Мексика) (129 км)
Погода в Pilares de Nacoz (Мексика) (189 км)
Погода в Altar Son (Мексика) (201 км)
Погода в Ciudad Obregon (Мексика) (218 км)
Погода в Santa Rosalia (Мексика) (237 км)
Погода в Temosachic (Мексика) (307 км)
Погода в Nueva Casas Grandes (Мексика) (328 км)
Погода в Loreto (Мексика) (342 км)

Пояснения к столбцам:

Ветер - указаны скорость ветра в м/с - средняя за 10 мин, порывы в срок и между сроками (в фигурных скобках) и направление, откуда дует ветер: С - северный, СВ - северо-восточный, В - восточный, ЮВ - юго-восточный, Ю - южный, ЮЗ - юго-западный, З - западный, СЗ - северо-западный.
Видимость - горизонтальная дальность видимости в метрах или километрах. При видимости от 1 до 10 км при отсутствии осадков обычно наблюдается дымка, при ухудшении видимости до 1 км и менее - туман. В сухую погоду видимость может ухудшаться дымом, пылью или мглою.
Явления - указаны атмосферные явления, наблюдавшиеся в срок или в последний час перед сроком; фигурными скобками обозначены явления, наблюдавшиеся между сроками (за 1-3 часа до срока); квадратными скобками обозначены град или гололедные отложения с указанием их диаметра в мм.
Облачность - указаны через наклонную черту общая и нижняя облачность в баллах и высота нижней границы облаков в метрах; квадратными скобками обозначены формы облаков: Ci - перистые, Cs - перисто-слоистые, Cc - перисто-кучевые, Ac - высококучевые, As - высокослоистые, Sc - слоисто-кучевые, Ns - слоисто-дождевые, Cu - кучевые, Cb - кучево-дождевые. Подробнее классификацию облаков см. в Атласе облаков (PDF).
T - Температура воздуха - температура, измеренная на высоте 2 м над землей.
Td - Температура точки росы - температура, при понижении до которой содержащийся в воздухе водяной пар достигнет насыщения.
f - Относительная влажность воздуха - влажноcть воздуха, измеренная на высоте 2 м над землей.
Te - Эффективная температура - температура, которую ощущает одетый по сезону человек в тени. Характеристика душности погоды. При расчете учитывается влияние влажности воздуха и скорости ветра на теплоощущения человека.
Tes - Эффективная температура на солнце - температура, которую ощущает человек, с поправкой на солнечный нагрев. Характеристика знойности погоды. Зависит от высоты солнца над горизонтом, облачности и скорости ветра. Ночью, в пасмурную погоду, а также при ветре 12 м/с и более поправка равна нулю.
P - Атмосферное давление - приведенное к уровню моря атмосферное давление.
Po - Атмосферное давление - измеренное на уровне метеостанции атмосферное давление.
Tmin - Минимальная температура - минимум температуры воздуха на высоте 2 м над землей.
Tmax - Максимальная температура - максимум температуры воздуха на высоте 2 м над землей.
R - Количество осадков - Количество выпавших осадков за период времени, мм. При наведении курсора мыши на число - период времени, за который выпало указанное количество осадков.
R24 - Количество осадков - Количество выпавших осадков за 24 часа, мм.
S - Снежный покров - Высота снежного покрова, см. При наведении курсора мыши на число - состояние снежного покрова и степень покрытия местности в баллах.